Flag for United Kingdom

Past Weather in St Helens, England, United Kingdom — Yesterday and Last 2 Weeks

Now
55 °F

Partly cloudy.


Feels Like: 52 °F
Forecast: 60 / 56 °F
Wind: 12 mph from West

Location: Liverpool Airport

Current Time: Jul 15, 2020 at 12:07:42 am

Latest Report: Jul 14, 2020 at 11:20 pm


Visibility: N/A

Pressure: 30.01 "Hg

Humidity: 94%

Dew Point: 54 °F

Location of St HelensLocation

Past Weather in St Helens — Graph

°F

St Helens Temperature Yesterday

Maximum temperature yesterday: 61 °F (at 2:20 pm)
Minimum temperature yesterday: 55 °F (at 10:20 pm)
Average temperature yesterday: 58 °F

High & Low Weather Summary for the Past Weeks

 TemperatureHumidityPressure
High70 °F (Jul 12, 3:50 pm)100% (Jul 2, 2:50 am)30.39 "Hg (Jul 2, 2:50 am)
Low46 °F (Jul 12, 3:50 am)46% (Jul 12, 3:50 pm)29.56 "Hg (Jul 1, 4:50 am)
Average59 °F80%29.95 "Hg
* Reported Jun 29 10:20 pm — Jul 14 10:50 pm, St Helens. Weather by CustomWeather, © 2020

Note: Actual official high and low records may vary slightly from our data, if they occured in-between our weather recording intervals... More about our weather records

St Helens Weather History for the Previous 24 Hours

Scroll right to see more
 ConditionsComfort  
Time TempWeatherWind HumidityBarometerVisibility
10:50 pm
Tue, Jul 14
55 °FPartly cloudy.10 mph94%30.01 "HgN/A
10:20 pm55 °FMostly cloudy.10 mph94%30.01 "HgN/A
9:50 pm57 °FSprinkles. Mostly cloudy.9 mph94%30.01 "HgN/A
9:20 pm57 °FSprinkles. Mostly cloudy.9 mph94%30.01 "HgN/A
8:50 pm57 °FSprinkles. Mostly cloudy.12 mph88%30.01 "HgN/A
8:20 pm57 °FPartly sunny.12 mph88%30.01 "HgN/A
7:50 pm57 °FPartly sunny.14 mph82%30.01 "HgN/A
7:20 pm59 °FScattered clouds.13 mph77%30.01 "HgN/A
6:50 pm59 °FScattered clouds.13 mph72%30.01 "HgN/A
6:20 pm59 °FScattered clouds.15 mph72%30.04 "HgN/A
5:50 pm59 °FScattered clouds.15 mph72%30.04 "HgN/A
5:20 pm59 °FScattered clouds.15 mph72%30.04 "HgN/A
4:50 pm61 °FScattered clouds.14 mph68%30.04 "HgN/A
4:20 pm61 °FPartly sunny.15 mph68%30.04 "HgN/A
3:50 pm59 °FPartly sunny.15 mph77%30.04 "HgN/A
3:20 pm59 °FPartly sunny.15 mph72%30.04 "HgN/A
2:50 pm59 °FPartly sunny.14 mph72%30.07 "HgN/A
2:20 pm61 °FPartly sunny.14 mph68%30.07 "HgN/A
1:50 pm59 °FPartly sunny.14 mph72%30.04 "HgN/A
1:20 pm59 °FPartly sunny.14 mph72%30.04 "HgN/A
12:50 pm59 °FBroken clouds.15 mph72%30.04 "HgN/A
12:20 pm59 °FBroken clouds.15 mph72%30.04 "HgN/A
11:50 am59 °FBroken clouds.14 mph72%30.07 "HgN/A
11:20 am59 °FBroken clouds.14 mph72%30.07 "HgN/A
10:50 am59 °FPartly sunny.13 mph77%30.07 "HgN/A
10:20 am59 °FBroken clouds.12 mph72%30.07 "HgN/A
9:50 am59 °FBroken clouds.13 mph72%30.07 "HgN/A
9:20 am57 °FBroken clouds.12 mph77%30.07 "HgN/A
8:50 am57 °FMore clouds than sun.12 mph77%30.07 "HgN/A
8:20 am57 °FScattered showers. More clouds than sun.10 mph77%30.07 "HgN/A
7:50 am57 °FScattered showers. Broken clouds.9 mph72%30.07 "HgN/A
7:20 am57 °FBroken clouds.7 mph77%30.07 "HgN/A
6:50 am57 °FBroken clouds.8 mph77%30.07 "HgN/A
6:20 am57 °FPartly sunny.9 mph77%30.07 "HgN/A
5:50 am57 °FBroken clouds.10 mph77%30.07 "HgN/A
5:20 am57 °FBroken clouds.8 mph72%30.07 "HgN/A
4:50 am57 °FMostly cloudy.8 mph77%30.07 "HgN/A
4:20 am57 °FMostly cloudy.9 mph77%30.07 "HgN/A
3:50 am59 °FOvercast.8 mph72%30.07 "HgN/A
3:20 am59 °FMostly cloudy.8 mph72%30.07 "HgN/A
2:50 am59 °FMostly cloudy.8 mph82%30.07 "HgN/A
2:20 am59 °FPartly cloudy.8 mph82%30.07 "HgN/A
1:50 am59 °FPartly cloudy.9 mph88%30.07 "HgN/A
12:50 am59 °FPassing clouds.10 mph94%30.07 "HgN/A
12:20 am59 °FPassing clouds.9 mph94%30.07 "HgN/A
Weather by CustomWeather, © 2020

See weather overview